POPACS 2

导读

POPACS 2是美国于2013年9月29日发射的人造卫星,作为POPACS系列卫星的第二颗,承担着空间技术试验与验证任务。该卫星由美方研发团队打造,旨在测试新型空间载荷技术与小型卫星平台的在轨稳定性,为后续同类小卫星发展积累运行经验。目前仍在预定轨道开展相关空间探测与技术验证工作,是美国低轨小卫星技术试验布局中的一员,推动了小型卫星应用技术的迭代发展。

基本信息
目录编号:
39269
目录名称:
POPACS 2
国际标识:
2013-055E
轨道中心:
EARTH
卫星名称:
POPACS 2
卫星全名:
--
卫星状态:
在轨 (已飞行4724 天)
发射日期:
2013-09-29 UTC
国别 :
美国 (US)
星等 :
--
轨道信息
数据来源 国际轨道数据
星历时间: 2026-09-05T18:12:15+0800
7小时前
查看轨道信息
半长轴: 6964.548km
偏心率: 0.0406417
轨道倾角: 80.990°
近地点辐角 295.789°
升交点赤经 52.166°
平近点角 60.192°
近地点: 303.359km
远地点: 869.463km
周期: 96.405分钟
每日圈数: 14.937002
详细信息
使用方式:
暂无
2D轨道图
3D轨道图
轨道高度分析图
轨道倾角分析图
轨道综合分析图
查看轨道综合分析图
交会数据列表
事件ID 空间交会对象 最接近时刻(TCA) 交会距离 交会风险概率(CRP) 交会风险指数(CRI) 操作
CDM_260902-002503-926906-976921
POPACS 2 (39269)
2026-09-02T
00:25:45+0000
0.698 km
远距离
7.158861E-5 中风险 0.72
CDM_260903-071003-926905-454225
POPACS 2 (39269)
2026-09-03T
07:10:03+0000
0.746 km
远距离
7.019172E-5 中风险 0.72
CDM_260903-035503-905503-926924
CZ-4 DEB (39055)
POPACS 2 (39269)
2026-09-03T
03:55:36+0000
1.467 km
极远距离
7.214522E-6 低风险 0.52
CDM_260908-025503-926905-442421
POPACS 2 (39269)
2026-09-08T
02:55:49+0000
2.492 km
极远距离
1.750447E-6 低风险 0.4
CDM_260903-102103-216703-926924
POPACS 2 (39269)
2026-09-03T
10:21:19+0000
2.905 km
极远距离
1.391331E-6 低风险 0.38
CDM_260906-143303-926905-788323
POPACS 2 (39269)
2026-09-06T
14:33:59+0000
2.655 km
极远距离
1.156018E-6 低风险 0.36